Tracking 19564 objects as of 19-Mar-2019
HD Live streaming from Space Station
objects crossing your sky now

HIBER-2

Track HIBER-2 now!
10-day predictions


NORAD ID: 43774
Int'l Code: 2018-099S
Perigee: 582.0 km
Apogee: 598.0 km
Inclination: 97.8 °
Period: 96.3 minutes
Semi major axis: 6961 km
RCS: Unknown
Launch date: December 3, 2018
Source: Netherlands (NETH)
Launch site: AIR FORCE WESTERN TEST RANGE (AFWTR)
aabbcc
Your satellite tracking list
Your tracking list is empty




NASA's NSSDC Master Catalog

Two Line Element Set (TLE):
1 43774U 18099S   19077.64625023 -.00000126 +00000-0 -62495-5 0  9996
2 43774 097.7564 150.7125 0011466 271.4466 088.5441 14.94840207015661
Source of the keplerian elements: AFSPC